Weather History for KMCD - November, 2012

Change the Weather History Date:

Wednesday, November 7, 2012

  Actual Average Record
Temperature  
Mean Temperature 38 °F -  
Max Temperature 41 °F 42 °F 60 °F (1996)
Min Temperature 36 °F 33 °F 13 °F (1991)
Degree Days  
Heating Degree Days 26    
Moisture  
Dew Point 27 °F    
Average Humidity 65    
Maximum Humidity 72    
Minimum Humidity 56    
Precipitation  
Precipitation 0.00 in - - ()
Sea Level Pressure  
Sea Level Pressure 30.10 in    
Wind  
Wind Speed 5 mph (SSE)    
Max Wind Speed 8 mph    
Max Gust Speed -    
Visibility 10 miles    
Events      
Averages and records for this station are not official NWS values.
T = Trace of Precipitation, MM = Missing Value Source: NWS Daily Summary

Daily Weather History Graph

Daily Weather History Graph

Search for Another Location

Airport or City:

Trip Planner

Search our weather history database for the weather conditions in past years. The results will help you decide how hot, cold, wet, or windy it might be!

Date:

Astronomy

Nov. 07, 2012 Rise Set
Actual Time 7:28 AM EST 5:15 PM EST
Civil Twilight 6:56 AM EST 5:47 PM EST
Nautical Twilight 6:20 AM EST 6:23 PM EST
Astronomical Twilight 5:45 AM EST 6:58 PM EST
Moon No Moon Rise 1:44 PM EST (11/7)
Length of Visible Light 10h 51m
Length of Day
9h 47m
Last Quarter, 43% of the Moon is Illuminated
Nov 7
Last Quarter
Nov 13
New
Nov 20
First Quarter
Nov 28
Full
Dec 6
Last Quarter

Hourly Weather History & Observations

Time (EST) Temp. Windchill Dew Point Humidity Pressure Visibility Wind Dir Wind Speed Gust Speed Precip Events Conditions
12:14 AM 37.0 °F - 25.3 °F 63% 30.02 in 10.0 mi Calm Calm - N/A   Overcast
12:33 AM 37.0 °F 31.0 °F 25.3 °F 63% 30.02 in 10.0 mi SE 8.1 mph - N/A   Overcast
12:53 AM 37.0 °F 31.6 °F 25.5 °F 63% 30.02 in 10.0 mi SE 6.9 mph - N/A   Overcast
1:14 AM 36.9 °F 33.1 °F 25.5 °F 64% 30.02 in 10.0 mi SE 4.6 mph - N/A   Overcast
1:33 AM 36.9 °F 32.2 °F 26.1 °F 65% 30.03 in 10.0 mi SSE 5.8 mph - N/A   Overcast
1:53 AM 36.9 °F 32.2 °F 26.2 °F 65% 30.03 in 10.0 mi SE 5.8 mph - N/A   Overcast
2:14 AM 37.0 °F 32.4 °F 26.6 °F 66% 30.04 in 10.0 mi SE 5.8 mph - N/A   Overcast
2:33 AM 37.4 °F 32.1 °F 26.6 °F 65% 30.03 in 10.0 mi SSE 6.9 mph - N/A   Overcast
2:53 AM 37.0 °F 31.6 °F 27.0 °F 67% 30.04 in 10.0 mi SSE 6.9 mph - N/A   Overcast
3:14 AM 37.0 °F 31.6 °F 27.3 °F 68% 30.04 in 10.0 mi SSE 6.9 mph - N/A   Overcast
3:33 AM 37.0 °F 31.6 °F 27.3 °F 68% 30.04 in 10.0 mi SSE 6.9 mph - N/A   Overcast
3:53 AM 37.0 °F 32.4 °F 27.1 °F 67% 30.05 in 10.0 mi SSE 5.8 mph - N/A   Overcast
4:13 AM 36.9 °F 33.1 °F 27.5 °F 69% 30.05 in 10.0 mi South 4.6 mph - N/A   Overcast
4:33 AM 36.9 °F 32.2 °F 27.5 °F 69% 30.05 in 10.0 mi South 5.8 mph - N/A   Overcast
4:53 AM 36.7 °F 32.9 °F 27.5 °F 69% 30.05 in 10.0 mi SSE 4.6 mph - N/A   Overcast
5:13 AM 36.5 °F 33.9 °F 27.5 °F 70% 30.05 in 10.0 mi SSE 3.5 mph - N/A   Overcast
5:33 AM 36.0 °F 32.1 °F 27.3 °F 71% 30.06 in 10.0 mi SSE 4.6 mph - N/A   Mostly Cloudy
5:53 AM 36.3 °F 33.7 °F 28.0 °F 72% 30.07 in 10.0 mi SE 3.5 mph - N/A   Overcast
6:13 AM 36.5 °F 33.9 °F 28.4 °F 72% 30.07 in 10.0 mi SSE 3.5 mph - N/A   Overcast
6:33 AM 36.9 °F 32.2 °F 27.5 °F 69% 30.08 in 10.0 mi SSE 5.8 mph - N/A   Overcast
6:53 AM 36.9 °F 31.4 °F 27.3 °F 68% 30.08 in 10.0 mi SSE 6.9 mph - N/A   Overcast
7:13 AM 37.0 °F 32.4 °F 27.3 °F 68% 30.09 in 10.0 mi SSE 5.8 mph - N/A   Overcast
7:33 AM 37.4 °F 34.9 °F 27.5 °F 67% 30.10 in 10.0 mi SSE 3.5 mph - N/A   Overcast
7:53 AM 37.4 °F 32.1 °F 27.5 °F 67% 30.10 in 10.0 mi South 6.9 mph - N/A   Overcast
8:13 AM 37.6 °F 32.3 °F 26.8 °F 65% 30.11 in 10.0 mi South 6.9 mph - N/A   Overcast
8:33 AM 37.8 °F 32.5 °F 27.0 °F 65% 30.12 in 10.0 mi South 6.9 mph - N/A   Overcast
8:54 AM 37.8 °F 32.5 °F 27.9 °F 67% 30.12 in 10.0 mi SSE 6.9 mph - N/A   Overcast
9:13 AM 37.8 °F 34.2 °F 27.5 °F 67% 30.12 in 10.0 mi South 4.6 mph - N/A   Overcast
9:33 AM 37.9 °F 32.1 °F 26.8 °F 64% 30.13 in 10.0 mi SSE 8.1 mph - N/A   Overcast
9:54 AM 37.9 °F 32.7 °F 27.9 °F 67% 30.13 in 10.0 mi SSE 6.9 mph - N/A   Overcast
10:13 AM 37.9 °F 32.1 °F 27.7 °F 67% 30.13 in 10.0 mi South 8.1 mph - N/A   Overcast
10:33 AM 37.9 °F 34.4 °F 28.4 °F 69% 30.13 in 10.0 mi South 4.6 mph - N/A   Overcast
10:54 AM 38.5 °F 34.1 °F 28.9 °F 69% 30.13 in 10.0 mi South 5.8 mph - N/A   Overcast
11:13 AM 38.7 °F 34.3 °F 29.1 °F 69% 30.14 in 10.0 mi South 5.8 mph - N/A   Overcast
11:33 AM 38.8 °F 34.6 °F 29.1 °F 68% 30.13 in 10.0 mi South 5.8 mph - N/A   Overcast
11:54 AM 39.4 °F 37.2 °F 29.1 °F 67% 30.13 in 10.0 mi South 3.5 mph - N/A   Overcast
12:13 PM 41.0 °F 37.1 °F 29.1 °F 63% 30.13 in 10.0 mi South 5.8 mph - N/A   Overcast
12:33 PM 40.3 °F 35.5 °F 28.6 °F 63% 30.11 in 10.0 mi SSE 6.9 mph - N/A   Overcast
12:54 PM 41.4 °F 36.8 °F 28.0 °F 59% 30.10 in 10.0 mi SE 6.9 mph - N/A   Overcast
1:13 PM 41.4 °F 36.2 °F 27.7 °F 58% 30.11 in 10.0 mi SE 8.1 mph - N/A   Overcast
1:33 PM 41.2 °F 36.6 °F 27.0 °F 57% 30.11 in 10.0 mi SE 6.9 mph - N/A   Overcast
1:54 PM 41.2 °F 37.3 °F 26.6 °F 56% 30.11 in 10.0 mi SSE 5.8 mph - N/A   Overcast
2:13 PM 41.0 °F 37.1 °F 27.0 °F 57% 30.12 in 10.0 mi SSE 5.8 mph - N/A   Overcast
2:33 PM 41.0 °F 36.4 °F 27.9 °F 60% 30.11 in 10.0 mi SSE 6.9 mph - N/A   Overcast
2:54 PM 41.0 °F 38.0 °F 27.3 °F 58% 30.11 in 10.0 mi SSE 4.6 mph - N/A   Overcast
3:13 PM 41.0 °F 39.0 °F 27.3 °F 58% 30.12 in 10.0 mi SSE 3.5 mph - N/A   Overcast
3:33 PM 41.0 °F - 27.5 °F 59% 30.12 in 10.0 mi Calm Calm - N/A   Overcast
3:54 PM 41.0 °F - 27.3 °F 58% 30.12 in 10.0 mi Calm Calm - N/A   Overcast
4:13 PM 40.6 °F - 27.3 °F 59% 30.11 in 10.0 mi Calm Calm - N/A   Overcast
4:33 PM 40.5 °F 37.3 °F 27.5 °F 60% 30.11 in 10.0 mi SSE 4.6 mph - N/A   Overcast
4:54 PM 40.5 °F 38.4 °F 27.5 °F 60% 30.11 in 10.0 mi SSE 3.5 mph - N/A   Overcast
5:13 PM 40.5 °F - 27.3 °F 59% 30.12 in 10.0 mi Calm Calm - N/A   Overcast
5:33 PM 40.3 °F 38.2 °F 27.3 °F 60% 30.12 in 10.0 mi SSE 3.5 mph - N/A   Overcast
5:53 PM 39.6 °F 37.4 °F 27.9 °F 63% 30.12 in 10.0 mi SE 3.5 mph - N/A   Mostly Cloudy
6:13 PM 38.8 °F 36.5 °F 27.1 °F 63% 30.12 in 10.0 mi SE 3.5 mph - N/A   Scattered Clouds
6:33 PM 38.3 °F 35.9 °F 27.1 °F 64% 30.14 in 10.0 mi SSE 3.5 mph - N/A   Clear
6:54 PM 37.0 °F 33.3 °F 27.3 °F 68% 30.14 in 10.0 mi SE 4.6 mph - N/A   Clear
7:13 PM 37.0 °F 33.3 °F 27.0 °F 67% 30.15 in 10.0 mi SSE 4.6 mph - N/A   Clear
7:33 PM 37.4 °F 33.8 °F 26.6 °F 65% 30.15 in 10.0 mi SE 4.6 mph - N/A   Mostly Cloudy
7:53 PM 38.5 °F 35.0 °F 26.4 °F 62% 30.15 in 10.0 mi SE 4.6 mph - N/A   Overcast
8:13 PM 38.7 °F 35.2 °F 26.8 °F 62% 30.15 in 10.0 mi SSE 4.6 mph - N/A   Overcast
8:33 PM 38.3 °F 34.8 °F 27.0 °F 64% 30.15 in 10.0 mi SSE 4.6 mph - N/A   Mostly Cloudy
8:53 PM 36.5 °F 31.8 °F 27.1 °F 69% 30.15 in 10.0 mi SSE 5.8 mph - N/A   Scattered Clouds
9:13 PM 37.8 °F 35.3 °F 27.3 °F 66% 30.15 in 10.0 mi SSE 3.5 mph - N/A   Mostly Cloudy
9:33 PM 37.4 °F 33.8 °F 27.3 °F 67% 30.15 in 10.0 mi SSE 4.6 mph - N/A   Scattered Clouds
9:53 PM 36.9 °F 32.2 °F 27.5 °F 69% 30.15 in 10.0 mi SSE 5.8 mph - N/A   Clear
10:13 PM 37.6 °F 33.1 °F 28.0 °F 68% 30.15 in 10.0 mi SSE 5.8 mph - N/A   Clear
10:33 PM 37.8 °F 34.2 °F 28.4 °F 69% 30.15 in 10.0 mi SSE 4.6 mph - N/A   Clear
10:53 PM 38.1 °F 34.6 °F 29.5 °F 71% 30.14 in 10.0 mi South 4.6 mph - N/A   Clear
11:13 PM 38.3 °F 33.2 °F 29.5 °F 71% 30.14 in 10.0 mi South 6.9 mph - N/A   Clear
11:34 PM 38.3 °F 33.2 °F 29.3 °F 70% 30.14 in 10.0 mi South 6.9 mph - N/A   Clear
11:53 PM 38.7 °F 33.6 °F 29.3 °F 69% 30.15 in 10.0 mi South 6.9 mph - N/A   Mostly Cloudy